TimePDT,TemperatureF,Dew PointF,Humidity,Sea Level PressureIn,VisibilityMPH,Wind Direction,Wind SpeedMPH,Gust SpeedMPH,PrecipitationIn,Events,Conditions,WindDirDegrees,DateUTC
12:53 AM,54.0,51.1,90,30.06,10.0,WSW,6.9,-,N/A,,Clear,240,2013-07-04 07:53:00
1:53 AM,54.0,50.0,86,30.06,10.0,WSW,6.9,-,N/A,,Clear,240,2013-07-04 08:53:00
2:53 AM,54.0,50.0,86,30.07,10.0,Calm,Calm,-,N/A,,Clear,0,2013-07-04 09:53:00
3:53 AM,51.1,48.0,89,30.07,10.0,Calm,Calm,-,N/A,,Clear,0,2013-07-04 10:53:00
4:53 AM,50.0,48.0,93,30.08,10.0,Calm,Calm,-,N/A,,Clear,0,2013-07-04 11:53:00
5:53 AM,52.0,50.0,93,30.09,10.0,Calm,Calm,-,N/A,,Clear,0,2013-07-04 12:53:00
6:53 AM,55.9,52.0,87,30.10,10.0,Calm,Calm,-,N/A,,Clear,0,2013-07-04 13:53:00
7:53 AM,59.0,53.1,81,30.10,10.0,SW,8.1,-,N/A,,Clear,220,2013-07-04 14:53:00
8:53 AM,62.1,53.1,72,30.11,10.0,SW,3.5,-,N/A,,Clear,230,2013-07-04 15:53:00
9:53 AM,61.0,53.1,75,30.11,10.0,ESE,6.9,-,N/A,,Clear,110,2013-07-04 16:53:00
10:53 AM,61.0,53.1,75,30.12,10.0,ESE,10.4,-,N/A,,Clear,110,2013-07-04 17:53:00
11:53 AM,63.0,54.0,72,30.12,10.0,East,6.9,-,N/A,,Clear,100,2013-07-04 18:53:00
12:53 PM,63.0,53.1,70,30.12,10.0,East,6.9,-,N/A,,Clear,100,2013-07-04 19:53:00
1:53 PM,64.9,54.0,68,30.12,10.0,ESE,9.2,-,N/A,,Clear,110,2013-07-04 20:53:00
2:53 PM,66.9,53.1,61,30.10,10.0,ESE,8.1,-,N/A,,Clear,110,2013-07-04 21:53:00
3:53 PM,68.0,53.1,59,30.09,10.0,Variable,5.8,-,N/A,,Clear,0,2013-07-04 22:53:00
4:53 PM,66.9,52.0,59,30.08,10.0,Variable,6.9,-,N/A,,Clear,0,2013-07-04 23:53:00
5:53 PM,64.0,52.0,65,30.07,10.0,SSW,8.1,-,N/A,,Clear,200,2013-07-05 00:53:00
6:53 PM,61.0,51.1,70,30.06,10.0,SW,8.1,-,N/A,,Clear,220,2013-07-05 01:53:00
7:53 PM,59.0,50.0,72,30.04,10.0,SW,8.1,-,N/A,,Clear,230,2013-07-05 02:53:00
8:53 PM,55.9,48.9,77,30.04,10.0,Variable,3.5,-,N/A,,Clear,0,2013-07-05 03:53:00
9:53 PM,54.0,48.9,83,30.04,10.0,SW,3.5,-,N/A,,Clear,220,2013-07-05 04:53:00
10:53 PM,52.0,48.9,89,30.04,10.0,Calm,Calm,-,N/A,,Clear,0,2013-07-05 05:53:00
11:53 PM,50.0,48.0,93,30.04,10.0,Calm,Calm,-,N/A,,Clear,0,2013-07-05 06:53:00